This is the latest recevied weather packets stored in our database for station/object W4DEX-2. If no packets are shown the sender has not sent any weather packets the latest 10 day(s).
| Time | Temp. | Humidity | Pressure | Rain* | Wind** | Luminosity | Snow |
|---|---|---|---|---|---|---|---|
| 1778206802 | 12.78° C | 89% | 1012.4 hPa | 0 mm | 4.47 m/s, 177° | - | - |
| 1778206502 | 12.78° C | 89% | 1012.3 hPa | 0 mm | 4.02 m/s, 179° | - | - |
| 1778206212 | 12.78° C | 89% | 1012.2 hPa | 0 mm | 4.02 m/s, 179° | - | - |
| 1778205903 | 12.78° C | 89% | 1012.1 hPa | 0 mm | 4.02 m/s, 179° | - | - |
| 1778205302 | 12.78° C | 89% | 1011.9 hPa | 0 mm | 3.58 m/s, 174° | - | - |
| 1778205002 | 12.78° C | 89% | 1012 hPa | 0 mm | 3.58 m/s, 173° | - | - |
| 1778204703 | 12.78° C | 89% | 1012 hPa | 0 mm | 3.58 m/s, 176° | - | - |
| 1778204403 | 12.78° C | 89% | 1012 hPa | 0 mm | 4.02 m/s, 181° | - | - |
| 1778204102 | 12.78° C | 89% | 1012 hPa | 0 mm | 4.02 m/s, 181° | - | - |
| 1778203503 | 12.78° C | 89% | 1011.6 hPa | 0 mm | 4.47 m/s, 179° | - | - |
| 1778203202 | 12.78° C | 89% | 1011.7 hPa | 0 mm | 4.02 m/s, 178° | - | - |
| 1778202602 | 12.78° C | 89% | 1011.6 hPa | 0 mm | 4.02 m/s, 180° | - | - |
| 1778202302 | 12.78° C | 89% | 1011.5 hPa | 0 mm | 4.02 m/s, 177° | - | - |
| 1778202003 | 12.78° C | 89% | 1011.2 hPa | 0 mm | 4.02 m/s, 176° | - | - |
| 1778201702 | 12.78° C | 89% | 1011.2 hPa | 0 mm | 4.02 m/s, 175° | - | - |
| 1778201402 | 12.78° C | 89% | 1011.1 hPa | 0 mm | 4.92 m/s, 178° | - | - |
| 1778200803 | 12.78° C | 89% | 1010.8 hPa | 0 mm | 4.02 m/s, 174° | - | - |
| 1778200502 | 12.78° C | 89% | 1010.8 hPa | 0 mm | 3.58 m/s, 182° | - | - |
| 1778200203 | 12.78° C | 89% | 1011.1 hPa | 0 mm | 4.47 m/s, 179° | - | - |
| 1778199602 | 12.78° C | 89% | 1010.5 hPa | 0 mm | 3.58 m/s, 172° | - | - |
| 1778199303 | 12.78° C | 89% | 1010.2 hPa | 0 mm | 4.02 m/s, 169° | - | - |
| 1778198702 | 13.33° C | 89% | 1009.7 hPa | 0 mm | 4.47 m/s, 172° | - | - |
| 1778198103 | 13.33° C | 89% | 1009.1 hPa | 6.6 mm | 3.13 m/s, 166° | - | - |
| 1778197803 | 13.33° C | 89% | 1009.3 hPa | 6.6 mm | 3.13 m/s, 175° | - | - |
| 1778196902 | 13.33° C | 89% | 1009.1 hPa | 0 mm | 3.13 m/s, 148° | - | - |
* Rain latest hour (hover to see other rain measurements)
** Current wind speed in m/s (hover to see current wind gust speed)